Kezdőlap
METAR-TAF:

METAR-TAF

Repülőterek :

Antsiranana, Madagaszkár

földrajzi szélesség: 12-21S, földrajzi hosszúság: 049-18E, magasság: 114 m

Jelenlegi meteorológiai megfigyelések

A jelentés 1 órával és 7 perccel ezelõtt készült, 03:00 UTC
Szélcsend
Hőmérséklet 20°C
Páratartalom 78%
Légköri nyomás 1015 hPa
Látótávolság 10 km, vagy több
Kevés felhő 2000 lábon

METAR: FMNA 220300Z 00000KT 9999 FEW020 20/16 Q1015

Idő: 07:07 (04:07 UTC)


TAF: hiányzik

Meteorológiai megfigyelések és előrejelzések több, mint 4000 repülőtéren (METAR és TAF jelentéseket).

A térképen piros és sárga pontok jelzik az elérhető meteorológiai állomásokat.

Mozgassa az egeret a pont fölött, hogy megjelenjen az állomás neve.

Azután kattintson az időjárási megfigyelések és előrejelzések megtekintéséhez.

A térkép megváltoztatása: kattintson a fekete keresztel jelölt zöld gombra ráközelítéshez, a vonallal jelölt zöld gombra távolításhoz, vagy a zöld nyilakra a szomszédos térképek eléréséhez.


METAR-TAF: